QPF
0.06 0.06 0.05 0.03 0.02 0.02 0.04 0.06 0.07 0.07 0.05 0.05 0.04 0.03 0.05 0.09 0.08 0.04 0.03 0.02 0.02 0.01 0.01 0.01 0.02 0.02 0.03 0.03 0.02 0.02 0.02 0.01 0.01 0.02 0.02 0.02 0.02 0.01
0.07 0.08 0.06 0.04 0.03 0.02 0.02 0.04 0.04 0.04 0.05 0.04 0.04 0.04 0.06 0.11 0.11 0.07 0.04 0.03 0.02 0.01 0.01 0.01 0.02 0.02 0.02 0.03 0.03 0.03 0.03 0.02 0.02 0.02 0.02 0.02 0.02 0.02
0.06 0.07 0.06 0.06 0.07 0.04 0.03 0.04 0.03 0.04 0.04 0.03 0.04 0.05 0.07 0.10 0.09 0.06 0.04 0.03 0.02 0.02 0.01 0.02 0.03 0.03 0.03 0.04 0.04 0.04 0.03 0.03 0.03 0.03 0.02 0.02 0.02 0.01
0.06 0.09 0.06 0.06 0.07 0.05 0.05 0.04 0.04 0.06 0.05 0.05 0.05 0.06 0.07 0.07 0.08 0.07 0.06 0.04 0.03 0.04 0.03 0.02 0.03 0.03 0.03 0.04 0.04 0.04 0.04 0.03 0.03 0.02 0.02 0.02 0.01 0.01
0.06 0.07 0.06 0.07 0.05 0.05 0.05 0.06 0.06 0.06 0.06 0.06 0.06 0.07 0.07 0.07 0.08 0.08 0.09 0.08 0.06 0.05 0.05 0.03 0.03 0.03 0.03 0.03 0.04 0.04 0.04 0.03 0.02 0.01 0.01 0.01 0.00 0.00
0.05 0.05 0.05 0.05 0.04 0.05 0.06 0.06 0.06 0.06 0.05 0.06 0.06 0.07 0.06 0.06 0.07 0.08 0.09 0.10 0.10 0.08 0.06 0.05 0.05 0.04 0.04 0.03 0.04 0.03 0.03 0.02 0.02 0.01 0.01 0.00 0.00 0.00
0.04 0.04 0.03 0.04 0.04 0.04 0.04 0.05 0.05 0.05 0.04 0.06 0.05 0.04 0.04 0.06 0.06 0.06 0.07 0.10 0.10 0.08 0.06 0.04 0.04 0.05 0.05 0.04 0.03 0.03 0.02 0.02 0.02 0.02 0.01 0.01 0.00 0.00
0.04 0.03 0.03 0.03 0.02 0.03 0.04 0.04 0.05 0.04 0.04 0.06 0.06 0.05 0.05 0.07 0.09 0.10 0.10 0.07 0.06 0.06 0.06 0.05 0.03 0.04 0.04 0.03 0.03 0.03 0.02 0.01 0.01 0.02 0.02 0.01 0.01 0.01
0.02 0.03 0.02 0.01 0.02 0.02 0.03 0.04 0.04 0.04 0.04 0.04 0.06 0.06 0.07 0.07 0.09 0.10 0.10 0.08 0.06 0.06 0.06 0.04 0.04 0.04 0.03 0.03 0.04 0.03 0.02 0.02 0.01 0.01 0.01 0.01 0.01 0.01
0.01 0.02 0.03 0.03 0.03 0.03 0.05 0.06 0.06 0.05 0.05 0.04 0.04 0.04 0.04 0.07 0.08 0.09 0.10 0.11 0.10 0.10 0.08 0.06 0.05 0.05 0.03 0.03 0.03 0.04 0.03 0.03 0.03 0.02 0.01 0.01 0.01 0.01
0.01 0.01 0.01 0.02 0.03 0.02 0.05 0.06 0.07 0.06 0.04 0.04 0.04 0.04 0.05 0.07 0.07 0.07 0.08 0.09 0.09 0.09 0.07 0.06 0.04 0.03 0.03 0.03 0.04 0.05 0.04 0.04 0.04 0.03 0.02 0.01 0.01 0.01
0.01 0.01 0.01 0.01 0.02 0.03 0.03 0.04 0.04 0.03 0.05 0.08 0.08 0.06 0.05 0.04 0.03 0.04 0.05 0.06 0.06 0.06 0.05 0.05 0.05 0.04 0.04 0.04 0.04 0.04 0.06 0.06 0.05 0.02 0.02 0.02 0.02 0.01
0.02 0.01 0.01 0.01 0.01 0.02 0.02 0.02 0.03 0.04 0.06 0.08 0.07 0.05 0.04 0.03 0.03 0.02 0.03 0.05 0.06 0.07 0.07 0.07 0.07 0.07 0.07 0.07 0.07 0.07 0.07 0.08 0.05 0.02 0.01 0.01 0.01 0.01
0.03 0.03 0.03 0.03 0.03 0.03 0.02 0.01 0.02 0.03 0.03 0.03 0.04 0.03 0.03 0.03 0.03 0.03 0.03 0.04 0.07 0.10 0.12 0.13 0.10 0.10 0.09 0.10 0.11 0.11 0.09 0.06 0.04 0.03 0.03 0.01 0.01 0.01
0.03 0.04 0.03 0.03 0.03 0.02 0.01 0.01 0.02 0.02 0.03 0.02 0.02 0.03 0.03 0.02 0.03 0.03 0.04 0.07 0.09 0.09 0.09 0.10 0.09 0.09 0.10 0.11 0.10 0.10 0.07 0.05 0.04 0.04 0.03 0.02 0.01 0.01
0.02 0.02 0.02 0.02 0.02 0.02 0.02 0.02 0.01 0.02 0.02 0.03 0.02 0.03 0.04 0.04 0.04 0.04 0.05 0.07 0.07 0.06 0.08 0.09 0.09 0.08 0.07 0.06 0.06 0.07 0.07 0.06 0.05 0.03 0.03 0.02 0.02 0.02
0.02 0.02 0.02 0.02 0.03 0.03 0.02 0.03 0.03 0.03 0.03 0.03 0.03 0.03 0.03 0.03 0.03 0.05 0.07 0.08 0.08 0.08 0.09 0.08 0.07 0.08 0.07 0.06 0.06 0.06 0.07 0.06 0.05 0.04 0.04 0.04 0.03 0.03
0.02 0.01 0.01 0.01 0.02 0.02 0.02 0.03 0.04 0.04 0.04 0.04 0.04 0.04 0.04 0.04 0.04 0.05 0.06 0.06 0.08 0.09 0.08 0.07 0.07 0.06 0.05 0.04 0.03 0.04 0.04 0.05 0.05 0.06 0.06 0.06 0.04 0.03
0.02 0.02 0.02 0.02 0.02 0.03 0.03 0.04 0.04 0.04 0.05 0.05 0.05 0.05 0.04 0.04 0.04 0.05 0.05 0.04 0.05 0.06 0.07 0.06 0.06 0.05 0.04 0.03 0.03 0.02 0.03 0.05 0.06 0.06 0.06 0.06 0.04 0.03
0.05 0.04 0.03 0.03 0.04 0.04 0.05 0.05 0.04 0.04 0.05 0.06 0.06 0.05 0.04 0.04 0.05 0.05 0.05 0.05 0.06 0.07 0.07 0.06 0.05 0.04 0.04 0.03 0.03 0.02 0.02 0.04 0.05 0.05 0.05 0.06 0.06 0.05
0.03 0.03 0.03 0.02 0.03 0.03 0.04 0.04 0.04 0.04 0.04 0.06 0.07 0.07 0.05 0.05 0.05 0.05 0.05 0.05 0.06 0.06 0.07 0.08 0.07 0.05 0.04 0.04 0.04 0.03 0.02 0.03 0.05 0.06 0.07 0.08 0.07 0.05
0.02 0.02 0.03 0.03 0.03 0.03 0.04 0.05 0.05 0.05 0.05 0.05 0.06 0.07 0.08 0.08 0.08 0.08 0.07 0.06 0.06 0.06 0.06 0.05 0.05 0.06 0.06 0.06 0.05 0.05 0.05 0.03 0.03 0.04 0.04 0.05 0.05 0.04
0.02 0.03 0.03 0.03 0.03 0.03 0.04 0.05 0.06 0.06 0.05 0.05 0.07 0.08 0.08 0.08 0.08 0.07 0.07 0.08 0.09 0.09 0.08 0.07 0.05 0.05 0.05 0.05 0.06 0.06 0.06 0.05 0.04 0.04 0.03 0.03 0.03 0.03
MSLP
1011.92 1012.12 1012.34 1012.54 1012.69 1012.77 1012.76 1012.69 1012.57 1012.46 1012.40 1012.42 1012.54 1012.75 1013.04 1013.37 1013.71 1014.03 1014.30 1014.52 1014.68 1014.79 1014.89 1014.98 1015.06 1015.14 1015.22 1015.29 1015.34 1015.36 1015.35 1015.34 1015.31 1015.30 1015.30 1015.33 1015.37 1015.41
1011.99 1012.21 1012.43 1012.63 1012.77 1012.82 1012.78 1012.67 1012.52 1012.37 1012.27 1012.26 1012.35 1012.54 1012.83 1013.17 1013.53 1013.88 1014.20 1014.46 1014.67 1014.84 1014.97 1015.09 1015.20 1015.30 1015.39 1015.47 1015.53 1015.57 1015.59 1015.60 1015.60 1015.61 1015.63 1015.66 1015.70 1015.74
1011.94 1012.19 1012.44 1012.65 1012.78 1012.83 1012.78 1012.66 1012.50 1012.34 1012.22 1012.17 1012.24 1012.41 1012.67 1012.99 1013.35 1013.71 1014.04 1014.32 1014.55 1014.75 1014.91 1015.04 1015.17 1015.28 1015.39 1015.49 1015.58 1015.65 1015.70 1015.75 1015.79 1015.83 1015.87 1015.92 1015.97 1016.01
1011.78 1012.06 1012.34 1012.57 1012.73 1012.80 1012.78 1012.68 1012.53 1012.37 1012.25 1012.20 1012.24 1012.38 1012.60 1012.89 1013.21 1013.54 1013.85 1014.12 1014.35 1014.54 1014.70 1014.83 1014.96 1015.09 1015.21 1015.33 1015.44 1015.55 1015.64 1015.73 1015.82 1015.90 1015.98 1016.06 1016.12 1016.18
1011.50 1011.82 1012.13 1012.39 1012.59 1012.71 1012.73 1012.68 1012.58 1012.46 1012.36 1012.32 1012.34 1012.45 1012.63 1012.87 1013.14 1013.41 1013.67 1013.90 1014.09 1014.25 1014.38 1014.50 1014.62 1014.73 1014.86 1014.99 1015.13 1015.27 1015.41 1015.54 1015.68 1015.81 1015.93 1016.05 1016.14 1016.22
1011.13 1011.47 1011.81 1012.12 1012.36 1012.53 1012.63 1012.65 1012.61 1012.55 1012.50 1012.47 1012.50 1012.59 1012.73 1012.91 1013.11 1013.31 1013.50 1013.67 1013.81 1013.91 1014.01 1014.09 1014.18 1014.28 1014.40 1014.53 1014.68 1014.84 1015.02 1015.20 1015.38 1015.55 1015.72 1015.88 1016.01 1016.11
1010.67 1011.04 1011.40 1011.74 1012.04 1012.27 1012.43 1012.53 1012.57 1012.58 1012.58 1012.59 1012.63 1012.70 1012.81 1012.94 1013.08 1013.22 1013.34 1013.45 1013.52 1013.58 1013.62 1013.66 1013.71 1013.78 1013.88 1014.00 1014.15 1014.32 1014.51 1014.71 1014.93 1015.14 1015.35 1015.54 1015.71 1015.85
1010.15 1010.54 1010.93 1011.30 1011.63 1011.91 1012.13 1012.29 1012.41 1012.48 1012.54 1012.58 1012.64 1012.71 1012.80 1012.90 1013.00 1013.09 1013.16 1013.21 1013.24 1013.25 1013.25 1013.25 1013.26 1013.30 1013.36 1013.45 1013.58 1013.74 1013.92 1014.13 1014.36 1014.59 1014.82 1015.04 1015.24 1015.41
1009.59 1010.01 1010.42 1010.81 1011.16 1011.48 1011.74 1011.95 1012.11 1012.23 1012.32 1012.40 1012.48 1012.56 1012.64 1012.72 1012.80 1012.87 1012.91 1012.94 1012.94 1012.93 1012.90 1012.88 1012.86 1012.85 1012.87 1012.93 1013.02 1013.14 1013.30 1013.49 1013.70 1013.93 1014.17 1014.40 1014.61 1014.81
1009.03 1009.48 1009.91 1010.31 1010.68 1011.01 1011.28 1011.51 1011.69 1011.83 1011.94 1012.04 1012.13 1012.21 1012.30 1012.38 1012.47 1012.54 1012.59 1012.62 1012.63 1012.62 1012.59 1012.55 1012.51 1012.47 1012.45 1012.46 1012.49 1012.56 1012.67 1012.82 1013.00 1013.20 1013.41 1013.63 1013.85 1014.06
1008.47 1008.97 1009.43 1009.86 1010.23 1010.55 1010.81 1011.03 1011.20 1011.33 1011.44 1011.53 1011.61 1011.71 1011.80 1011.90 1012.01 1012.10 1012.19 1012.26 1012.29 1012.31 1012.29 1012.26 1012.20 1012.14 1012.08 1012.04 1012.02 1012.03 1012.08 1012.16 1012.28 1012.44 1012.62 1012.81 1013.01 1013.21
1007.96 1008.52 1009.03 1009.47 1009.84 1010.14 1010.38 1010.56 1010.70 1010.80 1010.87 1010.94 1011.02 1011.11 1011.21 1011.34 1011.47 1011.61 1011.74 1011.85 1011.94 1011.99 1012.01 1011.99 1011.93 1011.86 1011.77 1011.68 1011.61 1011.56 1011.54 1011.56 1011.62 1011.71 1011.84 1012.00 1012.16 1012.34
1007.49 1008.13 1008.69 1009.15 1009.53 1009.81 1010.02 1010.15 1010.24 1010.29 1010.33 1010.37 1010.42 1010.51 1010.62 1010.76 1010.93 1011.10 1011.28 1011.45 1011.58 1011.68 1011.73 1011.73 1011.69 1011.61 1011.50 1011.38 1011.26 1011.16 1011.08 1011.04 1011.04 1011.08 1011.15 1011.25 1011.38 1011.52
1007.08 1007.80 1008.41 1008.90 1009.28 1009.54 1009.72 1009.81 1009.85 1009.86 1009.85 1009.86 1009.89 1009.97 1010.09 1010.24 1010.43 1010.65 1010.86 1011.07 1011.25 1011.38 1011.46 1011.49 1011.46 1011.38 1011.26 1011.12 1010.98 1010.84 1010.72 1010.63 1010.57 1010.56 1010.58 1010.63 1010.71 1010.80
1006.71 1007.49 1008.14 1008.66 1009.04 1009.30 1009.44 1009.51 1009.51 1009.49 1009.46 1009.45 1009.47 1009.54 1009.67 1009.84 1010.05 1010.28 1010.53 1010.76 1010.96 1011.12 1011.22 1011.26 1011.24 1011.17 1011.05 1010.91 1010.75 1010.59 1010.44 1010.32 1010.23 1010.17 1010.15 1010.15 1010.18 1010.22
1006.36 1007.18 1007.85 1008.38 1008.76 1009.01 1009.15 1009.20 1009.20 1009.17 1009.14 1009.13 1009.16 1009.25 1009.38 1009.56 1009.79 1010.03 1010.28 1010.53 1010.74 1010.90 1011.01 1011.06 1011.04 1010.98 1010.87 1010.72 1010.56 1010.40 1010.24 1010.10 1009.99 1009.90 1009.84 1009.79 1009.77 1009.76
1006.01 1006.81 1007.48 1008.00 1008.38 1008.63 1008.77 1008.84 1008.86 1008.85 1008.86 1008.88 1008.94 1009.05 1009.21 1009.41 1009.64 1009.89 1010.14 1010.37 1010.57 1010.73 1010.83 1010.87 1010.86 1010.80 1010.69 1010.55 1010.40 1010.24 1010.08 1009.93 1009.80 1009.69 1009.59 1009.50 1009.43 1009.37
1005.63 1006.38 1007.01 1007.50 1007.86 1008.12 1008.29 1008.39 1008.46 1008.51 1008.58 1008.66 1008.78 1008.94 1009.13 1009.35 1009.59 1009.84 1010.07 1010.29 1010.46 1010.60 1010.68 1010.71 1010.69 1010.62 1010.51 1010.38 1010.22 1010.07 1009.91 1009.75 1009.60 1009.46 1009.33 1009.21 1009.09 1008.98
1005.21 1005.87 1006.43 1006.88 1007.24 1007.51 1007.71 1007.87 1008.01 1008.15 1008.29 1008.46 1008.65 1008.86 1009.09 1009.34 1009.59 1009.83 1010.05 1010.24 1010.39 1010.49 1010.54 1010.55 1010.51 1010.43 1010.32 1010.18 1010.02 1009.86 1009.69 1009.51 1009.34 1009.17 1009.01 1008.84 1008.68 1008.52
1004.76 1005.32 1005.80 1006.21 1006.55 1006.84 1007.10 1007.33 1007.56 1007.79 1008.03 1008.28 1008.55 1008.82 1009.09 1009.36 1009.61 1009.83 1010.03 1010.19 1010.31 1010.38 1010.40 1010.38 1010.33 1010.23 1010.10 1009.95 1009.78 1009.59 1009.40 1009.20 1008.99 1008.79 1008.58 1008.37 1008.17 1007.97
1004.30 1004.76 1005.18 1005.56 1005.90 1006.23 1006.55 1006.87 1007.19 1007.51 1007.84 1008.17 1008.49 1008.81 1009.11 1009.38 1009.62 1009.83 1009.99 1010.12 1010.20 1010.24 1010.24 1010.20 1010.12 1010.00 1009.86 1009.69 1009.49 1009.28 1009.05 1008.81 1008.56 1008.31 1008.06 1007.81 1007.57 1007.35
1003.88 1004.27 1004.65 1005.03 1005.40 1005.78 1006.17 1006.57 1006.98 1007.38 1007.78 1008.16 1008.52 1008.85 1009.15 1009.40 1009.61 1009.78 1009.91 1010.00 1010.05 1010.06 1010.04 1009.98 1009.88 1009.76 1009.59 1009.40 1009.18 1008.94 1008.67 1008.39 1008.10 1007.80 1007.51 1007.23 1006.96 1006.71
1003.55 1003.92 1004.31 1004.71 1005.14 1005.59 1006.06 1006.53 1007.00 1007.46 1007.90 1008.30 1008.66 1008.96 1009.22 1009.43 1009.59 1009.70 1009.78 1009.83 1009.84 1009.83 1009.79 1009.72 1009.62 1009.49 1009.32 1009.11 1008.87 1008.60 1008.31 1007.99 1007.66 1007.34 1007.01 1006.70 1006.41 1006.15
Thickness
5761 5760 5758 5759 5759 5757 5755 5751 5743 5735 5735 5740 5742 5744 5743 5740 5736 5733 5731 5729 5727 5724 5721 5719 5717 5715 5712 5710 5707 5703 5700 5698 5695 5693 5691 5689 5687 5685
5759 5757 5756 5755 5755 5755 5753 5751 5748 5742 5736 5740 5741 5742 5741 5739 5735 5732 5730 5728 5725 5723 5721 5718 5715 5713 5710 5707 5704 5701 5698 5695 5692 5689 5687 5685 5683 5680
5756 5754 5752 5752 5751 5750 5750 5748 5746 5743 5736 5738 5740 5740 5738 5736 5733 5731 5729 5727 5724 5722 5720 5717 5714 5711 5708 5705 5701 5698 5695 5692 5689 5686 5683 5680 5678 5676
5753 5751 5750 5750 5747 5746 5745 5743 5742 5742 5737 5732 5733 5734 5734 5734 5731 5729 5728 5727 5725 5722 5719 5716 5714 5710 5706 5703 5699 5696 5692 5689 5686 5683 5679 5677 5674 5671
5752 5749 5748 5746 5743 5742 5741 5739 5739 5739 5736 5732 5730 5731 5730 5730 5728 5727 5726 5725 5724 5721 5717 5714 5711 5708 5704 5700 5697 5693 5690 5686 5683 5679 5676 5673 5670 5668
5750 5748 5746 5744 5741 5739 5738 5736 5736 5734 5733 5730 5727 5726 5725 5726 5724 5720 5719 5720 5719 5719 5715 5712 5709 5705 5701 5698 5694 5691 5687 5684 5680 5677 5673 5670 5666 5663
5747 5746 5744 5742 5740 5738 5737 5734 5732 5730 5728 5726 5724 5722 5720 5719 5717 5717 5715 5715 5714 5714 5711 5709 5705 5702 5698 5694 5691 5688 5685 5681 5678 5674 5670 5666 5663 5659
5743 5742 5741 5739 5738 5736 5734 5732 5730 5727 5724 5721 5720 5718 5716 5716 5715 5714 5710 5707 5704 5709 5706 5703 5703 5700 5697 5693 5690 5686 5683 5679 5675 5671 5667 5663 5659 5656
5740 5739 5739 5739 5737 5734 5732 5730 5727 5725 5723 5720 5717 5715 5714 5714 5712 5709 5706 5704 5702 5704 5702 5698 5698 5696 5695 5693 5689 5685 5681 5676 5672 5667 5663 5659 5656 5652
5738 5737 5735 5733 5733 5730 5728 5726 5724 5722 5721 5719 5717 5715 5714 5712 5709 5707 5704 5703 5703 5702 5699 5693 5693 5691 5692 5689 5686 5682 5677 5673 5669 5664 5660 5656 5652 5648
5736 5735 5733 5730 5728 5726 5723 5720 5718 5718 5719 5716 5714 5712 5710 5708 5705 5702 5699 5695 5693 5694 5696 5691 5689 5687 5685 5684 5681 5677 5674 5669 5664 5660 5656 5652 5648 5644
5731 5731 5729 5726 5723 5721 5718 5715 5713 5714 5713 5712 5709 5707 5706 5705 5702 5698 5695 5691 5689 5688 5691 5687 5684 5681 5677 5679 5677 5673 5668 5664 5660 5656 5652 5648 5644 5639
5726 5725 5724 5720 5718 5715 5713 5712 5711 5710 5708 5706 5705 5704 5704 5702 5700 5697 5694 5690 5686 5684 5687 5683 5679 5676 5672 5670 5670 5668 5665 5661 5656 5652 5648 5644 5640 5635
5719 5720 5719 5715 5713 5710 5708 5708 5707 5704 5703 5701 5700 5700 5700 5699 5698 5695 5692 5689 5686 5684 5682 5679 5675 5671 5667 5663 5661 5662 5661 5658 5654 5650 5646 5641 5636 5632
5714 5713 5711 5708 5706 5705 5704 5702 5699 5698 5698 5697 5696 5696 5697 5696 5694 5692 5689 5686 5683 5681 5679 5675 5672 5669 5665 5660 5658 5657 5654 5653 5651 5647 5642 5638 5634 5629
5705 5705 5703 5701 5700 5699 5698 5696 5695 5695 5695 5693 5692 5693 5692 5691 5688 5685 5682 5679 5675 5674 5674 5671 5668 5665 5660 5658 5655 5652 5650 5647 5645 5642 5639 5635 5631 5628
5698 5697 5695 5694 5693 5694 5693 5693 5692 5691 5690 5688 5687 5685 5684 5683 5681 5679 5675 5673 5669 5667 5665 5664 5663 5661 5658 5654 5649 5648 5646 5643 5641 5638 5634 5630 5628 5624
5690 5690 5689 5690 5690 5690 5690 5689 5688 5687 5686 5684 5682 5679 5677 5676 5674 5672 5669 5665 5662 5661 5659 5657 5655 5652 5648 5647 5646 5643 5641 5638 5636 5633 5630 5626 5622 5621
5683 5685 5686 5687 5687 5687 5686 5686 5685 5684 5682 5680 5676 5674 5672 5670 5667 5664 5661 5658 5656 5655 5654 5652 5649 5645 5640 5638 5640 5639 5636 5633 5630 5627 5624 5621 5618 5617
5680 5681 5682 5683 5683 5682 5682 5681 5680 5678 5676 5673 5671 5669 5666 5663 5661 5658 5655 5652 5650 5648 5646 5644 5642 5641 5638 5635 5634 5632 5631 5628 5625 5621 5619 5616 5613 5612
5677 5678 5679 5679 5678 5678 5676 5674 5672 5671 5668 5666 5663 5661 5659 5656 5654 5652 5650 5647 5643 5640 5638 5638 5639 5637 5634 5631 5627 5626 5624 5622 5621 5617 5614 5611 5607 5605
5673 5673 5674 5674 5673 5671 5669 5667 5665 5663 5660 5657 5655 5653 5652 5649 5647 5645 5643 5641 5639 5636 5635 5634 5632 5629 5626 5623 5621 5619 5617 5615 5613 5611 5609 5607 5603 5601
5668 5668 5668 5667 5666 5664 5662 5660 5657 5654 5651 5649 5647 5644 5642 5640 5639 5638 5636 5635 5633 5630 5628 5626 5625 5622 5620 5618 5616 5613 5611 5608 5605 5602 5600 5599 5598 5596